Skip Page Navigation
NASA JPL Caltech
NASA Logo - Jet Propulsion Laboratory + View the NASA Portal
+ Near-Earth Object (NEO) Program
Search JPL
JPL Home Earth Solar System Stars & Galaxies Technology
JPL Solar System Dynamics
BODIES ORBITS EPHEMERIDES TOOLS PHYSICAL DATA DISCOVERY FAQ SITE MAP
JPL Small-Body Database Browser
Search: [ help ]  
(2005 FH)
Classification: Apollo [NEO, PHA]          SPK-ID: 3274692
Ephemeris | Orbit Diagram | Orbital Elements | Physical Parameters | Close-Approach Data ]

[ hide orbit diagram ]
Orbit Diagram
Note: Make sure you have Java enabled on your browser to see the applet. This applet is provided as a 3D orbit visualization tool. The applet was implemented using 2-body methods, and hence should not be used for determining accurate long-term trajectories (over several years or decades) or planetary encounter circumstances. For accurate long-term ephemerides, please instead use our Horizons system.
Orbit Viewer

Additional Notes: the orbits shown in the applet are color coded. The planets are white lines, and the asteroid/comet is a blue line. The bright white line indicates the portion of the orbit that is above the ecliptic plane, and the darker portion is below the ecliptic plane. Likewise for the asteroid/comet orbit, the light blue indicates the portion above the ecliptic plane, and the dark blue the portion below the ecliptic plane.

Orbit Viewer applet originally written and kindly provided by Osamu Ajiki (AstroArts), and further modified by Ron Baalke (JPL).


Orbital Elements at Epoch 2456400.5 (2013-Apr-18.0) TDB
Reference: JPL 16 (heliocentric ecliptic J2000)
 Element Value Uncertainty (1-sigma)   Units 
e .6574370584971847 5.5055e-07  
a 2.694088222547641 2.466e-06 AU
q .9228947861840112 2.201e-06 AU
i 34.87073441936792 7.9438e-05 deg
node 144.1210987267679 9.1053e-05 deg
peri 317.8982841427151 0.0002643 deg
M 318.4740745079181 0.0010145 deg
tp 2456586.808627507856
(2013-Oct-21.30862751)
0.0048065 JED
period 1615.162217531243
4.42
0.0022176
6.071e-06
d
yr
n .2228878289081426 3.0602e-07 deg/d
Q 4.46528165891127 4.0872e-06 AU
  Orbit Determination Parameters
   # obs. used (total)      66  
   data-arc span      1912 days (5.23 yr)  
   first obs. used      2005-03-16  
   last obs. used      2010-06-10  
   planetary ephem.      DE405  
   SB-pert. ephem.      SB405-CPV-2  
   condition code      2  
   fit RMS      .58992  
   data source      ORB  
   producer      Otto Matic  
   solution date      2011-Sep-14 20:01:15  

Additional Information
 Earth MOID = .0361038 AU 
 T_jup = 2.821 
[ show covariance matrix ]

Ephemeris | Orbit Diagram | Orbital Elements | Physical Parameters | Close-Approach Data ]

Physical Parameter Table
Parameter Symbol Value Units Sigma Reference Notes
absolute magnitude H 17.473 mag .61788 16 autocmod 2.5a

[ show close-approach data ]
Ephemeris | Orbit Diagram | Orbital Elements | Physical Parameters | Close-Approach Data ]
ABOUT SSD CREDITS/AWARDS PRIVACY/COPYRIGHT GLOSSARY LINKS
FirstGov 2013-May-22 09:56 UT
(server date/time)  
NASA Home Page
Site Manager:   Donald K. Yeomans
Webmaster  Alan B. Chamberlin